Regional Weather Roundup
Issued by NWS

Home | Current Version | Previous Version | Graphics & Text | Print | Product List | Glossary On
Versions: 1 2 3 4 5 6 7 8 9 10 11 12 13 14 15 16 17 18 19 20 21 22 23 24 25 26 27 28 29 30 31 32 33 34 35 36 37 38 39 40 41 42 43 44 45 46 47 48 49 50
000
ASUS45 KTFX 102204
RWRMT
MONTANA HOURLY WEATHER ROUNDUP
NATIONAL WEATHER SERVICE GREAT FALLS MT
404 PM MDT THU JUL 10 2014

NOTE: "FAIR" INDICATES FEW OR NO CLOUDS BELOW 12000 FEET WITH NO
SIGNIFICANT WEATHER AND/OR OBSTRUCTIONS TO VISIBILITY.

* THESE STATIONS ARE NOT UNDER NWS QUALITY CONTROL. THEY DO NOT
   REPORT WEATHER SUCH AS PRECIPITATION OR FOG.

MTZ001>007-043-102300-
WEST OF THE DIVIDE
CITY           SKY/WX    TMP DP  RH WIND       PRES   REMARKS
KALISPELL      SUNNY     90  37  15 W10G22    29.81S
MISSOULA       SUNNY     91  37  15 NW3       29.83F
BUTTE          SUNNY     84  34  17 W10       29.99F
MULLAN PASS    SUNNY     72  41  33 VRB5      30.07S
* ESSEX        N/A      N/A N/A N/A N/A        N/A
* LINCOLN      N/A       85  41  21 SW7G20     N/A
* LOOKOUT PASS N/A       76  41  29 SE7G21     N/A
* POLSON       N/A       91  44  20 SW3G10     N/A
* RONAN APT    SUNNY     90  46  22 W5         N/A
* SEELEY LAKE  N/A       86  36  17 NW10G20    N/A
* THOMP F APT  SUNNY     80  50  35 S7G15      N/A
* YAAK HILL    N/A       92  46  20 SW3        N/A
$$

MTZ008-052>055-102300-
SOUTHWEST MONTANA
CITY           SKY/WX    TMP DP  RH WIND       PRES   REMARKS
BOZEMAN        SUNNY     88  50  27 NE8       29.91F
DILLON         SUNNY     86  41  20 SW9       29.95F
W YELLOWSTONE  PTCLDY    73  50  44 SW14G23   30.11S
* THREE FORKS  SUNNY     90  48  24 SW6        N/A
* BOULDER HILL N/A       84  41  22 S12G20     N/A
* MONIDA PASS  N/A       73  45  37 SE13G19    N/A
* RAYNOLDS PAS N/A       76  55  48 SE12       N/A
* WHITEHALL    N/A       92  44  19 S11G17     N/A
* WISE RIVER   N/A       84  33  16 NW12G22    N/A
$$

MTZ009>010-012-014-046-048-049-054-102300-
EAST SLOPES AND CENTRAL MONTANA
CITY           SKY/WX    TMP DP  RH WIND       PRES   REMARKS
CUT BANK       SUNNY     81  48  32 CALM      29.86F
GREAT FALLS    SUNNY     90  34  14 SW14G21   29.82F
HELENA         SUNNY     91  45  20 NE7       29.83F
* CONRAD       SUNNY     84  52  33 N/A        N/A
* DEARBORN     N/A       91  33  13 S12G29     N/A
* EAST GLACIER N/A       80  42  26 W9G19      N/A
* MONARCH      N/A       82  34  18 SW12G20    N/A
* PENDROY      N/A       81  47  30 NE6G11     N/A
* SAINT MARY   N/A       81  40  23 SW7G17     N/A
* SWEET GRASS  N/A       80  54  41 NE2G19     N/A   HI  80
$$

MTZ011-013-016-021-035-040-045-047-050-051-102300-
NORTH CENTRAL MONTANA
CITY           SKY/WX    TMP DP  RH WIND       PRES   REMARKS
HAVRE          SUNNY     88  52  29 VRB6      29.80F
LEWISTOWN      SUNNY     88  43  21 N6        29.89F
* CHESTER      N/A       88  46  23 W2G12      N/A
* DENTON       N/A       88  50  27 W8         N/A
* GEYSER       N/A       89  44  21 W14        N/A
* JUDITH GAP   N/A       86  47  26 SE2G7      N/A
* LOMA         N/A       90  45  21 SW6G11     N/A
$$

MTZ017>020-022>027-061-062-102300-
NORTHEAST MONTANA
CITY           SKY/WX    TMP DP  RH WIND       PRES   REMARKS
GLASGOW        SUNNY     90  54  29 N17       29.76R
GLENDIVE       SUNNY     93  54  27 W10G22    29.77S
JORDAN         SUNNY     93  39  15 NW17G43   29.79S
SIDNEY         SUNNY     91  61  37 SW7       29.73F
WOLF POINT     SUNNY     93  54  27 NW16G24   29.72S
* BEAVER HILL  N/A       88  50  27 W15        N/A
* CIRCLE       N/A       88  58  36 NW9G17     N/A
* LINDSAY DVD  N/A       86  60  42 NW13G19    N/A   HI  86
* NAVAJO       N/A       82  63  53 VRB17G24    N/A   HI  83
* SACO         N/A       86  58  39 NW14G21    N/A
$$

MTZ028>042-056>058-102300-
SOUTHCENTRAL AND SOUTHEAST MONTANA
CITY           SKY/WX    TMP DP  RH WIND       PRES   REMARKS
BAKER          SUNNY     91  54  28 W8        29.81F
LIVINGSTON     SUNNY     91  43  19 W14       29.91F
MILES CITY     SUNNY     97  45  17 NW17G22   29.76F
* LAUREL APT   SUNNY     91  46  21 N/A        N/A
* ROUNDUP APT  SUNNY     91  46  21 VRB6       N/A
* ALZADA       N/A       85  54  35 W5         N/A
* HYSHAM       N/A       91  49  24 W7         N/A
* LAME DEER    N/A       83  48  30 W12G19     N/A
* REED POINT   N/A       92  49  23 W10G16     N/A
* ROSCOE HILL  N/A       85  43  23 E4G11      N/A
$$

REGIONAL REPORTS...DAKOTAS
CITY           SKY/WX    TMP DP  RH WIND       PRES   REMARKS
WILLISTON      SUNNY     91  59  34 S9        29.71F
DICKINSON      SUNNY     82  66  58 S13       29.79F HI  84
CROSBY         PTCLDY    84  68  59 SW10      29.71F HI  87
WATFORD CITY   SUNNY     86  64  48 S12       29.73F HI  87
BISMARCK       SUNNY     79  64  60 SE9       29.81F
GRAND FORKS    CLOUDY    81  61  51 SE14      29.84F HI  82
FARGO          CLOUDY    82  61  49 S13G26    29.85F HI  83
BUFFALO SD     PTCLDY    88  64  45 SW7       29.76F HI  89
RAPID CITY     CLOUDY    72  64  76 W9        29.90S
$$

REGIONAL REPORTS...WYOMING/IDAHO/WASHINGTON
CITY           SKY/WX    TMP DP  RH WIND       PRES   REMARKS
GILLETTE       CLOUDY    82  52  35 N7        29.94F
SHERIDAN       PTSUNNY   84  52  33 E7        29.92S
CODY           PTSUNNY   82  52  35 SE8       29.97F
YELLOWSTONE LA PTCLDY    66  52  61 VRB5      30.22F
SALMON         SUNNY     88  46  23 NW6       29.86F
MULLAN PASS    SUNNY     72  41  33 VRB5      30.07S
SAND POINT     SUNNY     82  50  33 S6        29.84S
SPOKANE        SUNNY     90  30  12 S10       29.85S

$$



USA.gov is the U.S. government's official web portal to all federal, state and local government web resources and services.